DEXCS EDDF-EDDF

Flight info

Callsign DEXCS
Flight time 0h 11m
Altitude 1000
Route EDDF PATTERN WORK
Aircraft SR22/L-VGDW/C

Departure

Time 2026-05-06 15:13
Airport Frankfurt Main Airport (EDDF)

Arrival

Time 2026-05-06 15:25
Airport Frankfurt Main Airport (EDDF)
Time Latitude Longitude Altitude Speed Heading
2026-05-06 14:44 50.04032 8.55552 346 ft 0 kts 160°
2026-05-06 15:03 50.04011 8.55542 345 ft 11 kts 234°
2026-05-06 15:03 50.03978 8.55495 344 ft 1 kts 210°
2026-05-06 15:04 50.03891 8.55299 342 ft 41 kts 249°
2026-05-06 15:04 50.03801 8.54917 337 ft 47 kts 248°
2026-05-06 15:04 50.03693 8.54452 332 ft 49 kts 253°
2026-05-06 15:04 50.03599 8.54044 335 ft 39 kts 249°
2026-05-06 15:05 50.03520 8.53733 337 ft 32 kts 249°
2026-05-06 15:05 50.03465 8.53503 337 ft 20 kts 252°
2026-05-06 15:05 50.03421 8.53323 333 ft 16 kts 248°
2026-05-06 15:05 50.03389 8.53190 331 ft 13 kts 250°
2026-05-06 15:06 50.03363 8.53085 330 ft 13 kts 248°
2026-05-06 15:06 50.03325 8.52933 331 ft 20 kts 248°
2026-05-06 15:06 50.03298 8.52813 331 ft 0 kts 250°
2026-05-06 15:06 50.03287 8.52767 331 ft 7 kts 250°
2026-05-06 15:07 50.03285 8.52758 330 ft 0 kts 238°
2026-05-06 15:12 50.03249 8.52681 330 ft 19 kts 227°
2026-05-06 15:12 50.03078 8.52606 326 ft 51 kts 176°
2026-05-06 15:12 50.02609 8.52600 322 ft 101 kts 179°
2026-05-06 15:12 50.01884 8.52574 404 ft 125 kts 180°
2026-05-06 15:13 50.01052 8.52560 546 ft 137 kts 181°
2026-05-06 15:13 50.00156 8.52529 701 ft 146 kts 182°
2026-05-06 15:13 49.99230 8.52452 882 ft 149 kts 184°
2026-05-06 15:13 49.98263 8.52366 1042 ft 153 kts 183°
2026-05-06 15:14 49.97466 8.53014 1267 ft 152 kts 115°
2026-05-06 15:14 49.97191 8.54533 1281 ft 162 kts 97°
2026-05-06 15:14 49.97311 8.56006 1678 ft 146 kts 67°
2026-05-06 15:14 49.98084 8.56715 1551 ft 163 kts
2026-05-06 15:15 49.99035 8.56545 1603 ft 158 kts 357°
2026-05-06 15:15 49.99954 8.57049 1491 ft 164 kts 42°
2026-05-06 15:15 50.00332 8.58477 1506 ft 161 kts 97°
2026-05-06 15:15 49.99715 8.59641 1528 ft 157 kts 165°
2026-05-06 15:16 49.98771 8.59188 1571 ft 156 kts 229°
2026-05-06 15:16 49.98517 8.57721 1373 ft 167 kts 278°
2026-05-06 15:16 49.99147 8.56510 1222 ft 166 kts 340°
2026-05-06 15:16 50.00100 8.56666 1335 ft 149 kts 28°
2026-05-06 15:17 50.00657 8.57671 1537 ft 131 kts 69°
2026-05-06 15:17 50.00804 8.58959 1595 ft 127 kts 96°
2026-05-06 15:17 50.00456 8.60014 1579 ft 130 kts 142°
2026-05-06 15:17 49.99656 8.60126 1484 ft 135 kts 213°
2026-05-06 15:18 49.99328 8.58968 1473 ft 134 kts 275°
2026-05-06 15:18 49.99555 8.57680 1339 ft 144 kts 292°
2026-05-06 15:18 50.00098 8.56689 1464 ft 132 kts 335°
2026-05-06 15:18 50.00875 8.56669 1385 ft 138 kts 25°
2026-05-06 15:19 50.01438 8.57719 1259 ft 145 kts 77°
2026-05-06 15:19 50.01296 8.58987 1346 ft 136 kts 123°
2026-05-06 15:19 50.00596 8.59755 1264 ft 141 kts 164°
2026-05-06 15:19 49.99756 8.59577 1198 ft 143 kts 213°
2026-05-06 15:20 49.99244 8.58527 1192 ft 141 kts 254°
2026-05-06 15:20 49.99322 8.57190 1254 ft 135 kts 297°
2026-05-06 15:20 49.99870 8.56295 1233 ft 137 kts 333°
2026-05-06 15:20 50.00668 8.56094 1139 ft 143 kts
2026-05-06 15:21 50.01484 8.55987 1215 ft 134 kts 340°
2026-05-06 15:21 50.02262 8.55476 1232 ft 134 kts 335°
2026-05-06 15:21 50.02939 8.54899 1287 ft 130 kts 332°
2026-05-06 15:21 50.03489 8.54895 1414 ft 111 kts 93°
2026-05-06 15:22 50.03186 8.55989 1057 ft 149 kts 123°
2026-05-06 15:22 50.02685 8.57188 1203 ft 152 kts 114°
2026-05-06 15:22 50.02593 8.58686 1496 ft 148 kts 81°
2026-05-06 15:22 50.02872 8.60102 1513 ft 160 kts 63°
2026-05-06 15:23 50.03399 8.61448 1610 ft 164 kts 58°
2026-05-06 15:23 50.03957 8.62857 1592 ft 172 kts 60°
2026-05-06 15:23 50.04506 8.64337 1616 ft 176 kts 61°
2026-05-06 15:23 50.05109 8.65710 1723 ft 171 kts 32°
2026-05-06 15:24 50.05615 8.64878 1610 ft 176 kts 250°
2026-05-06 15:24 50.05162 8.63246 1067 ft 195 kts 248°
2026-05-06 15:24 50.04749 8.61674 848 ft 178 kts 249°
2026-05-06 15:24 50.04384 8.60229 606 ft 158 kts 250°
2026-05-06 15:25 50.04064 8.58907 406 ft 140 kts 251°
2026-05-06 15:25 50.03812 8.57837 354 ft 113 kts 250°
2026-05-06 15:25 50.03643 8.57222 338 ft 46 kts 211°
2026-05-06 15:25 50.03470 8.57259 335 ft 21 kts 197°
2026-05-06 15:26 50.03373 8.57196 333 ft 15 kts 192°
2026-05-06 15:26 50.03335 8.57161 332 ft 0 kts 216°